FW9346 Weather Reports


time (UTC)temp
F
wind
direction
speed
knots
gust
knots
rain 1hr
in
rain 24hr
in
rain mn
in
humidity
%
barometer
mb
20260507113043 40 262 4.3 8.7 0.00 0.00 0.00 88 1013.1
20260507111542 41 210 3.5 8.7 0.00 0.00 0.00 87 1013.0
20260507110048 41 267 3.5 12.2 0.00 0.00 0.00 88 1013.1
20260507104540 41 278 2.6 9.6 0.00 0.00 0.00 88 1013.4
20260507103050 41 271 3.5 8.7 0.00 0.00 0.00 88 1013.5
20260507101547 41 254 3.5 9.6 0.00 0.00 0.00 88 1013.5
20260507100045 41 227 2.6 8.7 0.00 0.00 0.00 87 1013.5
20260507094539 42 285 4.3 11.3 0.00 0.00 0.00 87 1013.6
20260507093040 42 267 3.5 8.7 0.00 0.00 0.00 87 1013.7
20260507091604 43 289 3.5 10.4 0.00 0.00 0.00 87 1013.8
20260507090046 43 250 3.5 7.8 0.00 0.00 0.00 86 1014.1
20260507084542 43 352 5.2 9.6 0.00 0.00 0.00 87 1014.1
20260507083041 43 299 6.1 10.4 0.00 0.00 0.00 87 1014.3
20260507081538 43 309 3.5 9.6 0.00 0.00 0.00 87 1014.5
20260507080048 43 281 3.5 7.8 0.00 0.00 0.00 86 1014.6
20260507074546 43 284 3.5 10.4 0.00 0.00 0.00 86 1014.9
20260507073043 43 286 6.1 9.6 0.00 0.00 0.00 85 1015.0
20260507071543 44 261 6.1 11.3 0.00 0.00 0.00 85 1015.2
20260507070053 44 284 4.3 7.8 0.00 0.00 0.00 85 1015.3
20260507064541 43 266 1.7 6.1 0.00 0.00 0.00 85 1015.4
20260507063040 43 261 1.7 7.0 0.00 0.00 0.00 84 1015.6
20260507061545 44 265 1.7 8.7 0.00 0.00 0.00 83 1015.8
20260507060054 44 258 1.7 7.0 0.00 0.00 0.00 83 1015.9
20260507054547 44 282 1.7 6.1 0.00 0.00 0.00 82 1016.2
20260507053048 44 291 1.7 6.1 0.00 0.00 0.00 81 1016.1
20260507051542 45 271 0.9 6.1 0.00 0.00 0.00 80 1016.2
20260507050050 45 273 2.6 7.0 0.00 0.00 0.00 80 1016.1
20260507044547 45 257 2.6 6.1 0.00 0.00 0.00 79 1016.4
20260507043042 45 266 1.7 7.0 0.00 0.00 0.00 78 1016.5
20260507041542 45 265 1.7 6.1 0.00 0.00 0.00 77 1016.7
20260507040042 45 279 0.9 3.5 0.00 0.00 0.00 74 1016.6
20260507034552 47 286 0.9 6.1 0.00 0.00 0.00 72 1016.8
20260507033047 47 286 1.7 7.0 0.00 0.00 0.00 71 1016.8
20260507031540 47 235 0.9 3.5 0.00 0.00 0.00 68 1016.8
20260507030042 48 257 1.7 6.1 0.00 0.00 0.00 64 1016.7
20260507024555 48 269 2.6 5.2 0.00 0.00 0.00 63 1016.6
20260507023042 50 360 2.6 7.0 0.00 0.00 0.00 61 1016.5
20260507021546 50 360 1.7 7.0 0.00 0.00 0.00 60 1016.4
20260507020048 52 360 4.3 7.8 0.00 0.00 0.00 56 1016.1
20260507014549 53 360 5.2 11.3 0.00 0.00 0.00 54 1016.1
20260507013045 54 360 2.6 7.0 0.00 0.00 0.00 52 1015.9
20260507011544 55 360 4.3 9.6 0.00 0.00 0.00 49 1015.9
20260507010055 56 360 1.7 9.6 0.00 0.00 0.00 47 1015.9
20260507004540 57 360 3.5 8.7 0.00 0.00 0.00 45 1016.0
20260507003050 57 360 6.1 12.2 0.00 0.00 0.00 44 1016.0
20260507001557 58 360 8.7 14.8 0.00 0.00 0.00 39 1015.9
20260507000043 58 360 6.1 14.8 0.00 0.00 0.00 38 1016.1
20260506234549 59 360 5.2 11.3 0.00 0.00 0.00 36 1016.1
20260506233058 58 360 2.6 9.6 0.00 0.00 0.00 39 1016.2
20260506231549 59 360 7.0 14.8 0.00 0.00 0.00 35 1016.2
20260506230052 60 305 10.4 18.2 0.00 0.00 0.00 34 1016.3
20260506224542 59 300 2.6 6.1 0.00 0.00 0.00 33 1016.4
20260506223057 59 360 2.6 8.7 0.00 0.00 0.00 34 1016.5
20260506221549 58 360 6.1 9.6 0.00 0.00 0.00 36 1016.6
20260506220047 58 360 2.6 8.7 0.00 0.00 0.00 35 1016.6
20260506214543 58 360 8.7 13.9 0.00 0.00 0.00 35 1017.0
20260506213054 57 360 1.7 10.4 0.00 0.00 0.00 36 1016.9
20260506211548 58 349 2.6 11.3 0.00 0.00 0.00 35 1017.1
20260506210042 58 360 5.2 10.4 0.00 0.00 0.00 34 1017.4
20260506204546 59 360 3.5 7.8 0.00 0.00 0.00 35 1017.6
20260506203047 57 286 6.1 13.0 0.00 0.00 0.00 35 1017.7
20260506201539 58 342 3.5 15.6 0.00 0.00 0.00 35 1017.9
20260506200041 59 305 4.3 8.7 0.00 0.00 0.00 36 1017.9
20260506194540 57 360 5.2 17.4 0.00 0.00 0.00 36 1018.2
20260506193038 56 360 5.2 11.3 0.00 0.00 0.00 36 1018.2
20260506191545 57 294 8.7 17.4 0.00 0.00 0.00 37 1018.3
20260506190042 56 360 7.0 11.3 0.00 0.00 0.00 38 1018.5
20260506184549 56 360 6.1 12.2 0.00 0.00 0.00 36 1018.6
20260506183049 55 360 6.1 16.5 0.00 0.00 0.00 38 1018.7
20260506181549 56 311 4.3 10.4 0.00 0.00 0.00 38 1018.9
20260506180048 54 360 4.3 13.0 0.00 0.00 0.00 39 1019.1
20260506174556 54 360 2.6 11.3 0.00 0.00 0.00 39 1019.0
20260506173042 54 360 0.0 7.0 0.00 0.00 0.00 37 1019.2
20260506171549 53 360 3.5 9.6 0.00 0.00 0.00 39 1019.2
20260506170050 54 360 2.6 8.7 0.00 0.00 0.00 40 1019.3
20260506164541 53 304 1.7 8.7 0.00 0.00 0.00 39 1019.5
20260506163053 53 319 4.3 9.6 0.00 0.00 0.00 39 1019.5
20260506161550 52 213 0.0 10.4 0.00 0.00 0.00 39 1019.5
20260506160051 53 306 1.7 7.8 0.00 0.00 0.00 40 1019.5
20260506154551 52 306 1.7 7.0 0.00 0.00 0.00 42 1019.4
20260506153045 52 360 0.9 5.2 0.00 0.00 0.00 42 1019.6
20260506151551 51 0 0.9 4.3 0.00 0.00 0.00 42 1019.5
20260506150048 50 355 0.0 3.5 0.00 0.00 0.00 48 1019.3
20260506144558 50 180 0.0 2.6 0.00 0.00 0.00 50 1019.1
20260506143052 49 0 0.0 2.6 0.00 0.00 0.00 52 1019.2
20260506141542 48 0 0.0 1.7 0.00 0.00 0.00 55 1019.2
20260506140057 47 0 0.0 1.7 0.00 0.00 0.00 57 1019.2
20260506134541 46 0 0.0 1.7 0.00 0.00 0.00 59 1019.1
20260506133101 45 0 0.0 1.7 0.00 0.00 0.00 62 1018.9
20260506131546 44 0 0.0 1.7 0.00 0.00 0.00 64 1018.7
20260506130112 43 47 0.9 3.5 0.00 0.00 0.00 66 1018.5
20260506124541 42 58 1.7 4.3 0.00 0.00 0.00 67 1018.4
20260506123046 42 36 1.7 4.3 0.00 0.00 0.00 67 1018.2
20260506121545 42 42 2.6 5.2 0.00 0.00 0.00 68 1018.0
20260506120050 42 44 2.6 4.3 0.00 0.00 0.00 67 1017.8
20260506114543 42 40 2.6 5.2 0.00 0.00 0.00 67 1017.4